Home > Weather > Grenoble > Past weeks

Flag for France Weather for the Past 2 Weeks in Grenoble, Rhône-Alpes, France

Now
41 °F

Low clouds.


Feels Like: 33 °F
Forecast: 46 / 60 °F
Wind: 16 mph from North

Location: Grenoble / St. Geoirs

Current Time: May 1, 2016 at 6:38:09 PM

Latest Report: May 1, 2016 at 6:00 PM


Visibility: N/A

Pressure: 30.18 "Hg

Humidity: 93%

Dew Point: 39 °F

Location of GrenobleLocation

Historic Weather in Grenoble — Graph

°F

Grenoble Temperature Yesterday

Maximum temperature yesterday: 55 °F (at 11:00 AM)
Minimum temperature yesterday: 34 °F (at 6:30 AM)
Average temperature yesterday: 46 °F

High & Low Weather Summary for the Past Weeks

 TemperatureHumidityPressure
High68 °F (Apr 16, 5:00 PM)100% (Apr 20, 5:00 AM)30.24 "Hg (Apr 20, 5:00 AM)
Low30 °F (Apr 29, 6:00 AM)36% (Apr 29, 6:00 PM)29.65 "Hg (Apr 16, 7:30 PM)
Average48 °F76%30.01 "Hg
* Reported Apr 16 5:00 PM — May 1 5:30 PM, Grenoble, Weather by CustomWeather, © 2016

Note: Actual official high and low records may vary slightly from our data, if they occured in-between our weather recording intervals... More about our weather records

Advertising

Grenoble Weather History for the Previous 24 Hours

Scroll right to see more
 ConditionsComfort  
Time TempWeatherWind HumidityBarometerVisibility
5:30 PM
Sun, May 1
41 °FLight rain. Overcast.15 mph87%30.18 "HgN/A
5:00 PM41 °FLight rain. Overcast.14 mph93%30.18 "HgN/A
4:30 PM41 °FLight rain. Mostly cloudy.16 mph87%30.15 "HgN/A
4:00 PM41 °FLight rain. Mostly cloudy.15 mph93%30.15 "HgN/A
3:30 PM41 °FLight rain. Overcast.17 mph93%30.15 "HgN/A
3:00 PM41 °FLight rain. Low clouds.20 mph93%30.15 "HgN/A
2:30 PM41 °FLight rain. Low clouds.20 mph93%30.15 "HgN/A
2:00 PM41 °FLight rain. Low clouds.16 mph93%30.12 "HgN/A
1:30 PM41 °FLight rain. Low clouds.16 mph93%30.12 "HgN/A
1:00 PM41 °FLight rain. Low clouds.17 mph93%30.12 "HgN/A
12:30 PM41 °FLow clouds.15 mph93%30.09 "HgN/A
12:00 PM41 °FLight rain. Low clouds.17 mph93%30.09 "HgN/A
11:30 AM41 °FDrizzle. Low clouds.16 mph93%30.09 "HgN/A
11:00 AM41 °FLight rain. Low clouds.17 mph93%30.09 "HgN/A
10:30 AM39 °FLight rain. Overcast.18 mph93%30.09 "HgN/A
10:00 AM39 °FLight rain. Overcast.16 mph93%30.07 "HgN/A
9:30 AM39 °FRain. Mostly cloudy.14 mph93%30.07 "Hg4 mi
9:00 AM39 °FRain. Fog.13 mph93%30.07 "Hg3 mi
8:30 AM39 °FRain. Fog.16 mph93%30.07 "Hg2 mi
8:00 AM39 °FRain. Fog.14 mph93%30.07 "Hg2 mi
7:30 AM39 °FRain. Fog.16 mph93%30.07 "Hg2 mi
6:30 AM39 °FRain. Overcast.15 mph93%30.04 "Hg4 mi
6:00 AM39 °FRain. Overcast.14 mph93%30.04 "Hg4 mi
5:30 AM39 °FRain. Overcast.15 mph93%30.04 "Hg4 mi
5:00 AM37 °FRain. Mostly cloudy.15 mph93%30.04 "Hg4 mi
4:30 AM39 °FRain. Overcast.20 mph93%30.04 "Hg4 mi
4:00 AM39 °FLight rain. Overcast.12 mph93%30.07 "Hg6 mi
3:30 AM39 °FLight rain. Mostly cloudy.13 mph93%30.07 "Hg5 mi
3:00 AM41 °FLight rain. Mostly cloudy.14 mph87%30.04 "Hg6 mi
2:30 AM41 °FLight rain. Mostly cloudy.8 mph87%30.07 "HgN/A
2:00 AM41 °FLight rain. Passing clouds.13 mph87%30.07 "HgN/A
1:30 AM41 °FLight rain. Overcast.12 mph93%30.07 "HgN/A
1:00 AM41 °FLight rain. Overcast.8 mph93%30.07 "HgN/A
12:30 AM41 °FLight rain. Mostly cloudy.12 mph93%30.07 "HgN/A
12:00 AM43 °FLight rain. Mostly cloudy.8 mph93%30.07 "HgN/A
11:30 PM
Sat, Apr 30
41 °FLight rain. Partly cloudy.3 mph93%30.07 "Hg6 mi
11:00 PM41 °FLight rain. Mostly cloudy.9 mph93%30.07 "Hg4 mi
10:30 PM41 °FRain. Mostly cloudy.14 mph93%30.07 "Hg4 mi
10:00 PM41 °FLight rain. Mostly cloudy.17 mph93%30.04 "HgN/A
9:30 PM43 °FBroken clouds.3 mph100%30.04 "HgN/A
9:00 PM43 °FPartly sunny.2 mph93%30.01 "HgN/A
8:30 PM43 °FPartly sunny.6 mph93%30.01 "HgN/A
8:00 PM45 °FSunny.5 mph93%30.01 "Hg10 mi
7:30 PM45 °FSunny.7 mph93%30.01 "Hg10 mi
7:00 PM46 °FCloudy.6 mph87%30.01 "HgN/A
6:30 PM46 °FPartly sunny.8 mph82%30.01 "HgN/A
6:00 PM46 °FMostly cloudy.6 mph87%30.01 "HgN/A
Weather by CustomWeather, © 2016

See weather overviewHow to use our weather pages